Tracking 28790 objects as of 19-Apr-2024
HD Live streaming from Space Station
objects crossing your sky now

BREEZE-M R/B

Track BREEZE-M R/B now!


NORAD ID: 42943
Int'l Code: 2017-057B
Perigee: 3,469.7 km
Apogee: 34,516.1 km
Inclination: 22.8 °
Period: 670.0 minutes
Semi major axis: 25363 km
RCS: Unknown
Launch date: September 28, 2017
Source: Commonwealth of Independent States (former USSR) (CIS)
Launch site: TYURATAM MISSILE AND SPACE COMPLEX (TTMTR)

Note: This is a ROCKET BODY
Your satellite tracking list
Your tracking list is empty




NASA's NSSDC Master Catalog

Two Line Element Set (TLE):
1 42943U 17057B   24109.37911193 -.00000001  00000-0  00000-0 0  9994
2 42943  22.8377 212.4110 6120195  59.1576 346.9124  2.14920775 51441
Source of the keplerian elements: AFSPC